Temperature
20 20 18 16 16 15 15 15 15 14 14 14 14 13 13 13 13 12 12 12 11 11 11 12 12 13 13 13 13 13 12 12 13 13 14 14 14 14 13 13 13 12 12
20 20 18 16 16 15 15 15 14 14 14 13 13 12 12 12 12 12 12 12 11 11 11 11 12 12 13 13 13 12 12 12 12 13 13 14 13 13 13 13 13 12 12
20 20 18 17 16 15 15 15 14 14 14 13 13 12 12 12 12 12 12 11 11 11 11 11 11 12 12 12 12 12 12 12 12 13 13 13 13 13 13 13 13 13 12
20 20 18 17 16 15 15 15 14 14 14 13 13 12 12 12 12 12 12 11 11 11 11 11 12 12 12 12 12 11 11 11 12 12 13 13 12 12 12 12 13 13 12
20 19 18 17 16 15 15 15 14 14 13 13 13 12 12 12 12 12 12 12 12 12 12 12 12 12 12 12 12 11 11 12 13 13 12 12 12 12 12 12 13 12 12
19 19 19 17 16 15 15 15 14 14 14 13 13 13 12 13 13 12 12 12 12 12 12 12 12 13 13 13 12 12 12 13 13 14 13 12 12 12 12 12 13 13 12
19 19 19 18 17 16 15 15 14 14 14 14 14 13 13 13 13 13 12 12 12 12 13 13 13 13 13 13 13 13 14 14 14 14 14 14 13 13 12 13 13 13 12
19 19 20 19 17 16 16 15 15 14 14 14 14 14 13 13 13 13 13 13 13 13 14 14 14 13 14 14 14 14 14 14 14 15 15 15 14 14 14 14 14 14 13
19 19 20 19 18 17 16 16 15 15 15 15 15 14 14 13 13 13 13 14 14 14 14 15 14 14 14 14 14 14 14 14 14 15 15 15 14 14 14 15 15 15 14
19 18 19 19 18 18 17 17 16 16 16 15 15 15 15 15 14 14 14 14 14 15 15 15 15 15 14 14 14 14 14 14 14 15 15 15 14 14 15 15 15 15 15
19 18 18 18 18 17 17 17 16 16 16 16 16 15 15 15 14 13 13 14 14 15 15 15 15 15 15 15 14 14 14 14 14 15 14 14 14 14 14 15 15 15 15
20 19 18 18 17 17 16 16 16 16 16 15 15 15 14 14 13 13 13 14 14 14 15 15 15 15 14 15 15 14 14 14 14 14 14 13 13 13 14 14 14 14 14
21 20 18 18 17 17 16 16 15 15 15 15 14 14 14 14 13 13 13 14 14 14 14 15 14 14 14 14 13 13 13 13 13 13 13 12 12 12 12 12 13 13 13
21 20 19 18 18 17 16 16 15 15 15 14 14 14 14 14 13 13 13 13 13 13 13 13 13 13 13 13 13 13 13 12 12 12 12 12 12 12 12 12 12 12 12
21 20 19 18 18 17 16 16 15 15 15 14 14 14 13 13 13 13 13 13 13 13 13 13 13 12 12 13 12 12 12 12 12 12 12 12 12 12 12 12 11 12 12
20 19 19 18 18 17 16 16 15 15 15 14 14 13 13 13 13 13 13 13 13 12 12 12 12 12 12 12 12 12 12 12 12 12 12 12 12 12 12 11 11 11 12
19 19 19 18 18 17 16 16 15 15 14 14 14 13 13 13 13 13 12 12 12 12 12 12 12 12 12 11 11 11 11 12 12 12 12 12 11 11 11 11 11 11 11
18 18 19 19 18 17 16 15 15 14 14 14 13 13 13 12 12 12 12 12 12 12 12 11 11 11 11 11 11 11 11 11 11 11 11 11 11 11 11 11 11 11 11
17 17 18 18 17 16 15 15 14 14 14 13 13 13 12 12 12 12 12 12 11 11 11 11 11 11 11 11 10 10 11 11 11 11 11 11 11 11 11 11 11 11 11
16 16 17 17 16 15 14 14 14 14 13 13 13 12 12 12 12 12 12 11 11 11 11 11 11 10 10 10 9 10 10 10 10 10 10 11 11 11 11 10 10 10 10
15 15 16 16 15 14 14 14 13 13 12 12 12 12 12 12 12 12 11 11 11 11 10 10 10 9 9 8 8 8 9 9 9 9 10 9 9 9 9 9 9 9 9
14 14 14 14 14 13 13 13 13 13 12 12 12 12 12 12 11 11 11 11 10 10 9 9 8 8 8 7 6 6 6 6 8 7 7 7 7 7 7 7 7 7 7
14 14 14 14 14 14 13 13 13 12 12 12 12 12 11 11 11 11 10 10 10 9 8 8 7 7 6 6 6 5 4 4 4 5 5 5 5 6 5 5 5 5 5
14 14 14 14 13 13 13 13 13 12 12 12 11 11 11 11 10 10 10 9 9 8 7 7 6 6 5 5 5 5 4 3 3 3 3 4 3 3 3 3 4 4 4
13 13 13 13 13 13 12 12 12 12 12 11 10 10 10 10 10 10 9 9 8 7 6 6 6 5 5 4 4 4 4 3 2 2 1 1 1 2 2 2 2 2 2
13 13 13 13 12 12 12 12 12 11 11 10 10 10 9 9 9 9 8 8 7 6 6 5 5 5 4 4 3 3 2 1 1 0 0 0 0 0 0 0 1 1 1
Wind_Speed
9 15 20 19 18 17 15 14 11 9 8 7 6 6 6 6 7 6 5 5 6 7 8 9 10 10 8 6 6 6 5 5 5 5 6 7 6 4 4 3 5 8 2
13 17 19 19 18 16 15 14 11 9 7 7 6 5 5 4 4 5 5 5 6 7 8 9 11 11 10 6 5 4 4 3 3 5 7 9 10 8 3 2 5 6 3
14 17 17 17 17 16 15 14 12 9 7 5 4 3 3 3 4 4 5 6 7 7 7 8 9 9 10 8 6 5 3 3 4 6 11 12 11 12 7 3 4 6 5
12 16 15 17 16 15 14 13 12 9 6 4 3 2 2 2 3 4 5 6 7 6 6 6 7 7 7 7 6 5 4 4 5 7 11 12 8 7 6 4 5 6 5
9 14 17 18 15 14 13 13 11 8 6 4 2 1 1 2 2 4 5 5 5 5 5 5 5 5 4 4 4 4 5 5 6 9 12 11 7 5 6 4 6 7 7
10 14 18 18 14 13 13 13 11 8 6 4 2 0 2 4 1 4 6 5 4 3 3 3 4 4 4 4 5 6 7 7 6 10 10 10 8 7 6 6 7 9 10
10 14 17 17 14 13 13 13 11 9 6 4 2 1 2 4 2 5 7 5 3 1 2 3 3 4 4 5 6 7 8 7 8 10 10 10 10 11 10 10 10 12 12
9 11 15 15 13 12 13 13 12 10 7 5 3 1 2 3 4 5 6 5 3 3 3 5 6 7 7 8 9 10 10 9 9 9 10 11 13 14 14 13 13 14 15
9 11 12 12 12 12 12 13 12 10 8 6 4 2 1 1 2 3 5 5 5 5 5 7 8 9 10 10 11 12 12 11 10 10 13 13 14 15 15 15 16 17 18
7 8 12 12 13 12 12 13 13 11 9 7 5 4 4 5 7 8 9 9 7 6 7 8 10 11 12 12 13 14 15 12 12 13 14 15 18 17 17 17 18 19 20
6 6 7 11 11 13 14 15 14 11 10 9 9 11 9 9 12 12 12 8 7 7 8 10 12 13 13 14 17 19 17 11 12 12 13 14 15 16 17 18 19 21 22
9 7 6 7 9 8 9 12 11 12 12 12 12 13 12 11 5 5 8 8 8 9 11 13 16 15 14 12 15 16 11 13 13 11 13 16 18 19 19 20 21 22 23
13 10 8 7 7 8 5 5 6 7 9 12 12 9 9 5 3 3 5 6 9 10 10 11 11 10 10 9 7 6 9 10 8 9 12 15 17 20 21 21 22 23 24
9 12 10 9 8 7 7 5 3 3 3 3 5 3 3 2 1 1 1 2 3 4 4 4 4 7 7 8 7 6 7 6 6 8 11 15 17 20 22 23 24 25 26
4 9 10 8 8 7 6 5 4 4 4 4 5 2 2 2 0 1 1 1 2 3 2 3 4 6 6 6 6 6 7 6 8 10 11 16 17 19 23 24 25 25 26
3 5 6 6 6 7 6 5 4 2 3 3 5 4 4 2 3 3 4 3 3 3 4 3 5 5 5 5 6 8 8 7 7 8 10 13 16 18 21 23 24 25 25
5 4 3 2 2 5 7 7 4 3 4 4 5 6 5 3 3 2 3 4 4 6 6 4 5 4 6 6 7 7 7 7 7 8 10 11 13 15 17 20 22 23 24
1 2 3 2 2 4 5 7 5 5 6 6 7 7 8 8 7 4 5 5 5 6 4 5 5 5 6 6 6 6 6 7 9 8 8 9 10 10 12 14 17 21 23
3 5 4 5 5 7 9 9 9 9 9 8 9 9 11 13 12 7 6 6 7 5 6 6 6 5 7 7 7 7 7 8 9 9 9 8 8 9 9 12 16 18 20
5 8 7 8 10 10 10 11 10 11 9 7 7 9 12 12 14 9 5 7 7 6 6 7 7 7 6 7 9 9 8 10 8 7 8 9 9 11 12 13 13 15 18
7 8 9 10 10 9 9 9 8 7 7 7 6 10 12 12 12 9 7 7 7 6 7 8 6 8 6 7 6 7 7 8 5 9 12 11 11 10 11 12 11 12 13
8 8 9 10 10 10 9 8 8 8 7 6 5 7 11 12 11 9 8 7 7 6 8 7 6 5 5 7 5 6 5 6 5 12 10 8 10 9 10 11 11 12 13
8 9 10 11 12 12 11 9 9 7 6 5 6 5 8 11 11 9 7 6 7 6 6 6 7 7 6 6 6 4 4 5 9 6 7 10 9 9 10 10 12 10 13
8 9 10 11 11 10 9 8 9 7 6 5 4 5 7 9 9 9 7 6 6 6 6 6 7 6 6 6 5 4 5 7 6 7 6 6 11 12 11 13 11 10 12
8 8 9 10 10 10 10 10 9 8 6 5 5 6 6 6 7 8 7 5 6 5 6 6 6 6 5 5 5 6 7 7 7 10 13 9 8 8 9 10 10 10 10
8 9 9 11 11 10 11 10 9 9 8 8 7 6 5 5 5 6 6 5 5 4 5 5 5 7 6 6 6 6 7 6 8 9 15 16 13 8 9 8 9 10 10
Wind_Direction
120 135 152 153 152 150 146 140 134 127 115 101 96 95 89 77 81 82 63 39 33 27 26 25 23 26 39 69 85 81 72 62 42 14 348 326 303 310 355 3 328 320 224
123 137 151 155 156 154 150 144 139 133 123 109 102 100 99 84 77 71 49 37 40 35 25 17 16 18 25 44 69 74 68 52 18 347 320 302 272 243 235 302 318 327 331
121 135 149 155 159 157 153 148 144 140 132 120 111 105 108 98 92 83 66 53 44 37 26 16 10 14 23 38 51 52 43 26 352 329 310 291 266 222 214 233 284 297 311
123 139 153 154 161 159 157 152 148 145 138 127 113 104 99 113 122 106 87 64 51 37 24 15 9 11 21 33 36 31 24 5 344 318 305 303 324 183 201 236 267 273 289
120 138 144 152 161 161 160 154 151 147 139 130 121 89 54 30 166 139 113 88 69 48 28 14 11 5 3 3 356 341 333 335 335 299 285 293 305 239 228 249 268 276 270
131 126 141 150 159 162 161 158 155 149 144 137 128 111 327 329 271 164 135 118 98 63 30 8 357 354 339 319 308 303 305 312 313 293 295 305 305 287 262 260 262 270 266
127 126 143 150 159 164 164 162 159 155 150 142 136 119 7 9 36 148 144 142 134 81 352 334 317 308 299 290 288 287 289 293 279 271 272 273 277 274 269 264 261 262 266
121 127 141 152 160 168 170 167 165 163 158 152 146 127 51 43 65 124 152 169 199 253 295 304 301 295 289 284 281 278 276 275 283 290 286 270 262 261 262 263 262 261 263
131 134 145 156 162 171 174 173 172 171 168 167 169 160 107 116 128 163 184 204 229 262 285 294 295 294 293 292 289 285 279 271 265 270 272 267 259 258 259 259 260 260 259
148 154 155 162 171 174 178 182 180 178 177 179 188 193 191 212 226 222 216 216 226 254 281 289 291 291 292 292 288 280 271 265 257 259 258 254 252 253 256 258 259 260 260
171 173 168 164 172 175 181 184 182 183 190 194 206 213 212 229 233 221 219 204 210 248 273 280 282 282 282 281 275 266 260 251 251 256 255 252 254 255 257 258 259 261 261
185 191 186 177 164 168 175 162 181 187 192 202 218 204 208 224 228 125 163 204 233 255 267 272 270 272 274 266 265 261 242 241 246 250 249 246 252 256 259 260 260 260 261
181 183 184 188 172 168 153 158 176 186 183 197 219 191 189 198 155 170 187 210 229 242 246 258 257 252 247 248 254 247 234 243 249 257 263 262 258 262 263 264 265 264 263
166 172 180 182 176 178 158 166 172 165 163 175 181 182 171 133 107 249 198 217 233 242 231 251 262 269 267 272 275 268 263 263 264 266 268 270 261 262 267 268 269 269 267
167 155 168 176 177 173 163 154 173 179 160 165 145 124 81 81 88 29 348 295 277 288 287 275 281 291 300 302 297 301 306 297 289 283 278 275 268 262 270 274 274 274 274
119 137 149 166 183 166 151 146 169 179 122 93 107 96 70 42 42 22 344 341 335 328 317 314 313 315 310 308 311 307 297 292 289 292 292 291 286 273 270 277 279 279 278
38 42 85 116 167 162 153 153 158 144 111 92 80 73 65 56 58 34 4 3 354 356 357 355 347 339 328 326 316 312 313 313 306 298 293 288 283 279 274 277 282 283 283
107 106 108 140 175 156 130 124 110 87 81 76 68 67 59 52 54 52 39 21 7 15 12 3 355 349 338 328 317 308 305 299 291 288 292 290 287 284 283 281 281 284 285
145 123 117 135 134 111 96 87 84 75 67 66 61 57 55 48 46 53 46 27 12 20 15 4 1 353 337 328 321 318 317 306 296 299 300 303 311 317 322 320 313 302 292
83 103 105 97 96 96 91 86 80 75 69 63 61 58 56 51 45 40 42 30 15 18 12 10 1 353 341 339 331 322 307 298 299 318 336 344 339 338 339 335 331 324 319
84 95 104 107 106 102 103 101 96 90 79 69 63 63 59 53 49 44 32 29 21 14 19 12 2 348 343 338 329 318 294 299 331 360 344 334 329 334 340 337 331 327 321
94 91 92 93 93 93 96 96 100 99 92 86 71 61 61 54 47 46 36 28 20 15 20 7 6 354 341 346 338 329 328 319 358 339 308 317 322 323 327 324 318 313 309
84 85 92 92 95 98 101 104 106 100 98 89 83 76 66 61 48 42 39 29 19 22 17 3 12 0 339 335 352 343 333 309 316 277 332 313 308 325 318 310 302 302 307
90 87 92 98 103 110 114 112 111 106 104 103 103 100 91 75 58 36 38 31 24 27 20 360 4 347 345 333 332 337 306 300 304 303 299 302 315 309 306 308 309 309 310
93 88 87 87 83 82 82 87 95 97 100 92 80 69 82 79 66 35 30 26 29 28 9 352 351 344 339 330 323 314 309 304 292 302 302 296 293 291 299 305 309 309 306
98 91 90 88 81 77 79 79 85 88 82 76 68 56 56 66 58 32 21 16 22 16 351 338 346 334 317 306 301 298 295 295 302 300 300 303 301 294 296 298 301 301 303
Height
1491 1490 1491 1492 1494 1496 1497 1499 1500 1500 1500 1500 1499 1499 1499 1500 1501 1502 1502 1502 1502 1502 1503 1503 1504 1504 1505 1505 1505 1505 1505 1504 1504 1504 1503 1503 1504 1504 1505 1505 1506 1506 1507
1490 1490 1491 1493 1495 1496 1498 1499 1499 1500 1500 1500 1499 1499 1500 1500 1501 1501 1502 1502 1502 1502 1502 1503 1503 1504 1504 1504 1504 1504 1504 1503 1503 1503 1503 1503 1503 1504 1504 1504 1505 1505 1506
1490 1489 1491 1493 1495 1497 1498 1498 1499 1499 1500 1499 1499 1499 1500 1501 1501 1502 1502 1502 1502 1502 1502 1502 1502 1503 1503 1504 1504 1504 1503 1503 1502 1502 1502 1502 1502 1502 1503 1503 1504 1504 1505
1490 1489 1491 1493 1495 1497 1498 1498 1499 1499 1499 1499 1499 1499 1500 1501 1502 1502 1503 1502 1502 1501 1501 1501 1501 1501 1502 1502 1503 1503 1502 1502 1501 1501 1501 1500 1501 1501 1501 1502 1502 1503 1503
1491 1490 1491 1493 1495 1496 1498 1498 1499 1499 1499 1499 1498 1499 1500 1501 1502 1502 1502 1502 1501 1501 1500 1500 1500 1500 1500 1501 1501 1501 1501 1500 1500 1500 1499 1500 1501 1501 1500 1500 1500 1501 1501
1491 1490 1491 1492 1494 1496 1497 1498 1498 1499 1498 1498 1498 1499 1500 1501 1501 1502 1502 1502 1501 1500 1499 1499 1499 1499 1499 1499 1500 1500 1500 1499 1498 1498 1498 1498 1499 1499 1499 1498 1497 1498 1498
1491 1490 1491 1492 1493 1494 1496 1496 1497 1498 1498 1498 1498 1499 1500 1500 1501 1501 1502 1502 1501 1500 1499 1499 1498 1499 1499 1499 1499 1499 1498 1498 1497 1496 1496 1496 1496 1496 1496 1495 1495 1495 1495
1491 1490 1491 1491 1492 1493 1495 1495 1496 1497 1497 1498 1498 1498 1499 1500 1500 1501 1501 1501 1500 1499 1499 1498 1498 1498 1498 1498 1497 1497 1497 1496 1495 1494 1494 1493 1493 1493 1493 1493 1492 1492 1492
1490 1490 1490 1491 1492 1493 1494 1494 1495 1496 1496 1497 1497 1498 1498 1499 1500 1500 1500 1500 1499 1499 1498 1498 1498 1497 1497 1497 1496 1495 1495 1494 1493 1492 1491 1491 1490 1490 1490 1490 1489 1489 1489
1490 1490 1489 1490 1491 1492 1493 1494 1494 1495 1496 1496 1497 1497 1498 1498 1499 1500 1500 1500 1499 1498 1498 1497 1497 1496 1496 1495 1495 1494 1493 1493 1492 1491 1490 1489 1488 1488 1487 1487 1486 1485 1485
1489 1489 1490 1490 1490 1491 1492 1493 1494 1494 1495 1495 1496 1497 1497 1498 1499 1499 1499 1499 1499 1498 1497 1497 1496 1496 1495 1494 1493 1492 1491 1490 1489 1488 1487 1487 1486 1486 1485 1484 1483 1482 1481
1486 1488 1489 1490 1491 1491 1492 1492 1493 1494 1494 1495 1495 1496 1497 1498 1499 1500 1500 1500 1499 1498 1497 1496 1495 1494 1493 1492 1491 1490 1489 1488 1486 1485 1485 1484 1483 1482 1481 1480 1479 1478 1476
1483 1484 1486 1488 1490 1491 1491 1492 1492 1493 1494 1494 1495 1497 1497 1498 1499 1499 1499 1498 1498 1497 1496 1495 1494 1493 1491 1490 1489 1488 1486 1485 1484 1483 1482 1481 1480 1479 1477 1476 1474 1473 1471
1482 1482 1484 1486 1487 1489 1490 1491 1492 1493 1494 1495 1496 1497 1498 1498 1498 1498 1498 1498 1497 1496 1495 1494 1493 1492 1491 1490 1488 1487 1485 1484 1482 1481 1479 1478 1476 1474 1473 1471 1469 1467 1465
1481 1481 1481 1483 1485 1487 1488 1490 1491 1493 1494 1494 1495 1496 1497 1497 1497 1497 1497 1497 1496 1495 1494 1493 1491 1490 1489 1487 1486 1484 1482 1480 1479 1477 1475 1473 1471 1469 1468 1466 1464 1462 1460
1477 1478 1479 1480 1482 1484 1486 1487 1489 1491 1492 1494 1494 1494 1495 1495 1495 1495 1495 1495 1494 1493 1492 1490 1489 1487 1486 1484 1482 1480 1478 1476 1474 1472 1470 1468 1466 1464 1463 1461 1459 1457 1455
1472 1473 1474 1476 1478 1481 1483 1485 1487 1489 1490 1491 1492 1492 1493 1493 1493 1493 1493 1492 1491 1490 1489 1488 1486 1484 1482 1480 1479 1477 1474 1472 1470 1468 1465 1463 1461 1459 1458 1456 1454 1452 1450
1468 1469 1471 1472 1475 1478 1481 1483 1485 1487 1487 1488 1490 1490 1491 1491 1491 1490 1490 1490 1489 1488 1486 1485 1483 1481 1479 1477 1474 1472 1470 1467 1465 1462 1460 1458 1456 1455 1453 1451 1449 1446 1444
1467 1467 1467 1469 1472 1475 1478 1480 1482 1483 1484 1486 1487 1488 1489 1489 1489 1488 1488 1488 1487 1486 1484 1483 1480 1478 1475 1472 1469 1467 1464 1462 1459 1457 1455 1453 1452 1449 1447 1445 1442 1440 1438
1465 1465 1465 1467 1469 1472 1475 1477 1479 1481 1483 1484 1486 1487 1488 1488 1488 1487 1487 1486 1485 1484 1482 1479 1477 1475 1472 1468 1464 1461 1459 1456 1454 1453 1450 1448 1446 1444 1441 1439 1436 1434 1431
1465 1465 1465 1467 1469 1471 1473 1475 1478 1480 1482 1484 1486 1487 1488 1488 1487 1487 1486 1485 1483 1481 1479 1476 1473 1470 1468 1464 1459 1454 1452 1451 1450 1447 1446 1443 1441 1438 1435 1433 1431 1428 1425
1465 1465 1466 1468 1470 1471 1473 1475 1478 1480 1483 1485 1486 1487 1487 1487 1486 1485 1484 1483 1480 1478 1476 1473 1470 1467 1464 1462 1458 1452 1448 1445 1444 1443 1440 1438 1435 1433 1430 1427 1424 1421 1417
1465 1466 1467 1469 1471 1473 1474 1476 1479 1481 1483 1485 1486 1487 1487 1486 1485 1484 1482 1480 1477 1475 1472 1470 1467 1465 1462 1460 1458 1456 1451 1444 1438 1435 1435 1432 1429 1426 1423 1420 1417 1414 1410
1465 1467 1468 1470 1472 1474 1476 1478 1480 1482 1483 1485 1486 1486 1485 1484 1483 1481 1479 1477 1475 1472 1470 1468 1466 1463 1461 1458 1456 1455 1453 1447 1440 1429 1426 1425 1423 1419 1415 1412 1409 1406 1402
1465 1467 1469 1471 1473 1475 1477 1479 1481 1482 1483 1484 1485 1484 1483 1482 1481 1479 1477 1474 1472 1469 1467 1465 1463 1461 1458 1456 1453 1450 1446 1443 1438 1431 1419 1414 1413 1411 1409 1406 1402 1398 1395
1465 1467 1469 1471 1473 1476 1478 1480 1481 1482 1483 1483 1483 1483 1482 1480 1479 1477 1474 1471 1469 1467 1464 1462 1460 1458 1455 1452 1449 1446 1442 1438 1434 1428 1418 1408 1404 1401 1400 1397 1394 1391 1387